ISIS 1 DEB

基本信息
目录编号:
36301
目录名称:
ISIS 1 DEB
国际标识:
1969-009D
轨道中心:
EARTH
物体状态:
在轨
发射日期:
1969-01-30 UTC
轨道信息
数据来源: 国际轨道数据
星历时间: 2026-07-14T01:58:57+0800
半长轴: 7937.463km
偏心率: 0.1256197
轨道倾角: 88.380°
近地点辐角: 85.697°
升交点赤经: 87.593°
平近点角: 342.638°
近地点: 562.224km
远地点: 2556.428km
周期: 117.296分钟
每日圈数: 12.276661
详细信息
发射场:
AFWTR
轨道高度:
LEO
数据来源:
AOE Integration Group
参考系:
TEME
时间系统:
UTC
历元类型:
SGP4
2D轨道图
3D轨道图
轨道高度分析图
轨道倾角分析图
轨道综合分析图
查看轨道综合分析图